013  
ASUS44 KFWD 181603  
RWRTX  
NORTH TEXAS HOURLY WEATHER ROUNDUP  
NATIONAL WEATHER SERVICE FORT WORTH TX  
1100 AM CDT THU OCT 18 2018  
 
NOTE: "FAIR" INDICATES FEW OR NO CLOUDS BELOW 12,000 FEET WITH NO  
SIGNIFICANT WEATHER AND/OR S TO VISIBILITY
.  
 
TXZ118-119-181700-  
DALLAS/FORT WORTH METROPLEX  
 
CITY SKY/WX TMP DP RH WIND PRES REMARKS
 
DFW AIRPORT CLOUDY 62 50 64 E13 30.39S  
DALLAS LOVE CLOUDY 64 52 64 E14 30.39F  
FTW MEACHAM CLOUDY 61 52 72 NE9 30.40S  
DAL-EXECUTIVE CLOUDY 61 50 67 E8 30.39R  
FTW-ALLIANCE CLOUDY 62 52 69 NE8 30.41S  
FTW-NAS-JRB CLOUDY 62 51 67 E9 30.41S  
FTW-SPINKS CLOUDY 63 52 67 NE9 30.41S  
ARLINGTON CLOUDY 62 53 72 NE7 30.40R  
GRAND PRAIRIE CLOUDY 61 50 67 NE7 30.41S  
ADDISON CLOUDY 63 50 63 E14G20 30.41S  
MESQUITE CLOUDY 63 52 67 NE5 30.40S  
LANCASTER CLOUDY 61 51 69 E9 30.40R  

 
 
TXZ091>094-102>105-117-120-121-131>134-181700-  
NORTH CENTRAL TEXAS  
 
CITY SKY/WX TMP DP RH WIND PRES REMARKS
 
SHRMAN/DENISON CLOUDY 58 49 69 E9G16 30.44F  
GAINESVILLE CLOUDY 57 50 77 E6 30.45F  
BOWIE CLOUDY 57 53 85 NE5 30.43S  
BRIDGEPORT LGT RAIN 57 53 84 NE3 30.45S  
DECATUR CLOUDY 58 52 80 NE3 30.42R  
DENTON CLOUDY 61 52 72 E7 30.41S  
MCKINNEY CLOUDY 60 52 74 NE12 30.41S  
BONHAM CLOUDY 58 48 69 E7 30.44S  
GREENVILLE CLOUDY 63 50 63 NE10 30.41F  
ROCKWALL PTSUNNY 62 51 68 NE16 30.40F  
TERRELL CLOUDY 63 51 65 NE13 30.39F  
WAXAHACHIE CLOUDY 61 52 72 NE10 30.40S  
CLEBURNE CLOUDY 63 52 67 E9 30.40F  
GRANBURY CLOUDY 61 53 75 NE6 30.42S  

 
 
TXZ083>090-098>101-113>116-127>130-139>142-154-155-181700-  
WESTERN NORTH TEXAS  
 
CITY SKY/WX TMP DP RH WIND PRES REMARKS
 
WICHITA FALLS RAIN 54 52 93 E9 30.45S FOG  
WF-KICKAPOO DRIZZLE 55 53 94 NE7 30.47S  
VERNON CLOUDY 56 51 84 E5 30.47S  
ABILENE CLOUDY 50 50 100 E8 30.42S  
ABILENE-DYESS CLOUDY 50 45 82 N5 30.42F  
CISCO CLOUDY 52 50 93 N8 30.41S  
EASTLAND CLOUDY 53 50 89 NE3 30.41F  
RANGER CLOUDY 55 51 89 NE8 30.41S  
MINERAL WELLS CLOUDY 61 52 72 NE10 30.40S  
STEPHENVILLE CLOUDY 56 51 82 CALM 30.42F  
COMANCHE CLOUDY 54 54 98 MISG 30.41S  
COLEMAN CLOUDY 52 49 90 NE5 30.41S  
BRADY CLOUDY 48 48 100 NE7 30.39F  

 
 
TXZ143>147-156>162-174-175-181700-  
CENTRAL TEXAS  
 
CITY SKY/WX TMP DP RH WIND PRES REMARKS
 
WACO CLOUDY 59 53 80 N9 30.36F  
WACO-MCGREGOR CLOUDY 59 54 83 N9 30.36S  
HILLSBORO CLOUDY 60 52 75 NE6 30.38R  
CORSICANA CLOUDY 62 51 67 MISG 30.38R  
MEXIA CLOUDY 60 50 70 NE9 30.35R  
HEARNE CLOUDY 60 52 76 NE6 30.34S  
CAMERON CLOUDY 60 54 79 NE6 30.34S  
TEMPLE CLOUDY N/A N/A N/A N8 30.36S  
KILLEEN CLOUDY 56 50 80 NE10 30.35S  
KILLEEN-SKYLRK CLOUDY 57 51 80 NE9 30.37R  
FORT HOOD CLOUDY 57 51 79 NE10 30.32S  
GATESVILLE CLOUDY 57 52 82 NE3 30.39F  
HAMILTON CLOUDY 57 53 88 NE8 30.40S  
LAMPASAS CLOUDY 55 50 84 NE10 30.36S  

 
 
TXZ095>097-106>112-122>126-135>138-148>153-164>167-181700-  
EAST TEXAS  
 
CITY SKY/WX TMP DP RH WIND PRES REMARKS
 
PARIS CLOUDY 62 46 55 E16 30.44S  
SULPHUR SPRNGS CLOUDY 62 49 61 E10G21 30.44S  
MOUNT PLEASANT FAIR 61 49 64 NE9 30.43S  
GILMER CLOUDY 60 50 69 NE9G17 30.41S  
MINEOLA CLOUDY 61 52 72 NE5 30.40F  
TYLER CLOUDY 60 51 72 NE14 30.38S  
LONGVIEW CLOUDY 61 53 75 E13 30.38S  
MARSHALL CLOUDY 58 50 75 NE5 30.42S  
ATHENS CLOUDY 63 50 63 E7 30.36S  
PALESTINE CLOUDY 63 51 67 NE7 30.36S  
JACKSONVILLE CLOUDY 61 52 72 E10 30.37F  
HENDERSON CLOUDY 62 51 68 MISG 30.38S  
NACOGDOCHES N/A 62 52 69 E10 30.36R  
LUFKIN CLOUDY 61 53 75 NE5 30.34R  

 
 
SUPPLEMENTAL OBSERVATIONS (NWS FORT WORTH AREA)  
 
CITY SKY/WX TMP DP RH WIND PRES REMARKS
 

 
 
SUPPLEMENTAL OBSERVATIONS (NWS NORMAN AREA)  
 
CITY SKY/WX TMP DP RH WIND PRES REMARKS
 
GOODLETT LGT RAIN 55 48 76 SE12 30.47R  
ODELL N/A 55 51 85 SE3 30.49R  
CROWELL N/A 53 51 93 E6 30.49S  
KNOX CITY N/A 52 50 93 NE6 30.48R  
SEYMOUR N/A 53 51 92 N8 30.46R  

 
 
SUPPLEMENTAL OBSERVATIONS (NWS SAN ANGELO AREA)  
 
CITY SKY/WX TMP DP RH WIND PRES REMARKS
 
WEINERT N/A 51 49 92 N6 30.46F  
HASKELL N/A 51 48 92 N9 30.45F  
THROCKMORTON N/A 53 51 93 NE5 30.45S  
STAMFORD N/A 51 50 97 N7 30.45S  
CLYDE N/A 50 50 97 NE8 30.43F  

 
 
SUPPLEMENTAL OBSERVATIONS (NWS SHREVEPORT AREA)  
 
CITY SKY/WX TMP DP RH WIND PRES REMARKS
 

 
 
SUPPLEMENTAL OBSERVATIONS ARE A COLLECTION OF AUTOMATED INSTRUMENTS  
THAT ARE MAINTAINED BY A VARIETY OF FEDERAL AND STATE AGENCIES.  
CERTAIN ELEMENTS...SUCH AS HUMIDITY VALUES AND SUSTAINED WIND  
SPEEDS...MAY BE APPROXIMATED.  
 
 
 
CLICK HERE TO GO TO PREVIOUS BULLETINS.

The Nexlab TX Page Main Text Page